Probability
0 0 0 0 0 0 0 0 0 0 0 0 0 0 0 0 0 0 0 0 0 0 0 0 0 0 0 0 0 0 0 0 0 0 0 0 0 0 0 0 0 0 0 0
0 0 0 0 0 0 0 0 0 0 0 0 0 0 0 0 0 0 0 0 0 0 0 0 0 0 0 0 0 0 0 0 0 0 0 0 0 0 0 0 0 0 0 0
0 0 0 0 0 0 0 0 0 0 0 0 0 0 0 0 0 0 0 0 0 0 0 0 0 0 0 0 0 0 0 0 0 0 0 0 0 0 0 0 0 0 0 0
0 0 0 0 0 0 0 0 0 0 0 0 0 0 0 0 0 0 0 0 0 0 0 0 0 0 0 0 0 0 0 0 0 0 0 0 0 0 0 0 0 0 0 0
0 0 0 0 0 0 0 0 0 0 0 0 0 0 0 0 0 0 0 0 0 0 0 0 0 0 0 0 0 0 0 0 0 0 0 0 0 0 0 0 0 0 0 0
0 0 0 0 0 0 0 0 0 0 0 0 0 0 0 0 0 0 0 0 0 0 0 0 0 0 0 0 0 0 0 0 0 0 0 0 0 0 0 0 0 0 0 0
0 0 0 0 0 0 0 0 0 0 0 0 0 0 0 0 0 0 0 0 0 0 0 0 0 0 0 0 0 0 0 0 0 0 0 0 0 0 0 0 0 0 0 0
0 0 0 0 0 0 0 0 0 0 0 0 0 0 0 0 0 0 0 0 0 0 0 0 0 0 0 0 0 0 0 0 0 0 0 0 0 0 0 0 0 0 0 0
0 0 0 0 0 0 0 0 0 0 0 0 0 0 0 0 0 0 0 0 0 0 0 0 0 0 0 0 0 0 0 0 0 0 0 0 0 0 0 0 0 0 0 0
0 0 0 0 0 0 0 0 0 0 0 0 0 0 0 0 0 0 0 0 0 0 0 0 0 0 0 0 0 0 0 0 0 0 0 0 0 0 0 0 0 0 0 0
0 0 0 0 0 0 0 0 0 0 0 0 0 0 0 0 0 0 0 0 0 0 0 0 0 0 0 0 0 0 0 0 0 0 0 0 0 0 0 0 0 0 0 0
0 0 0 0 0 0 0 0 0 0 0 0 0 0 0 0 0 0 0 0 0 0 0 0 0 0 0 0 0 0 0 0 0 0 0 0 0 0 0 0 0 0 0 0
0 0 0 0 0 0 0 0 0 0 0 0 0 0 0 0 0 0 0 0 0 0 0 0 0 0 0 0 0 0 0 0 0 0 0 0 0 0 0 0 0 0 0 0
0 0 0 0 0 0 0 0 0 0 0 0 0 0 0 0 0 0 0 0 0 0 0 0 0 0 0 0 0 0 0 0 0 0 0 0 0 0 0 0 0 0 0 0
0 0 0 0 0 0 0 0 0 0 0 0 0 0 0 0 0 0 0 0 0 0 0 0 0 0 0 0 0 0 0 0 0 0 0 0 0 0 0 0 0 0 0 0
0 0 0 0 0 0 0 0 0 0 0 0 0 0 0 0 0 0 0 0 0 0 0 0 0 0 0 0 0 0 0 0 0 0 0 0 0 0 0 0 0 0 0 0
0 0 0 0 0 0 0 0 0 0 0 0 0 0 0 0 0 0 0 0 0 0 0 0 0 0 0 0 0 0 0 0 0 0 0 0 0 0 0 0 0 0 0 0
0 0 0 0 0 0 0 0 0 0 0 0 0 0 0 0 0 0 0 0 0 0 0 0 0 0 0 0 0 0 0 0 0 0 0 0 0 0 0 0 0 0 0 0
0 0 0 0 0 0 0 0 0 0 0 0 0 0 0 0 0 0 0 0 0 0 0 0 0 0 0 0 0 0 0 0 0 0 0 0 0 0 0 0 0 0 0 0
0 0 0 0 0 0 0 0 0 0 0 0 0 0 0 0 0 0 0 0 0 0 0 0 0 0 0 0 0 0 0 0 0 0 0 0 0 0 0 0 0 0 0 0
0 0 0 0 0 0 0 0 0 0 0 0 0 0 0 0 0 0 0 0 0 0 0 0 0 0 0 0 0 0 0 0 0 0 0 0 0 0 0 0 0 0 0 0
0 0 0 0 0 0 0 0 0 0 0 0 0 0 0 0 0 0 0 0 0 0 0 0 0 0 0 0 0 0 0 0 0 0 0 0 0 0 0 0 0 0 0 0
0 0 0 0 0 0 0 0 0 0 0 0 0 0 0 0 0 0 0 0 0 0 0 0 0 0 0 0 0 0 0 0 0 0 0 0 0 0 0 0 0 0 0 0
0 0 0 0 0 0 0 0 0 0 0 0 0 0 0 0 0 0 0 0 0 0 0 0 0 0 0 0 0 0 0 0 0 0 0 0 0 0 0 0 0 0 0 0
0 0 0 0 0 0 0 0 0 0 0 0 0 0 0 0 0 0 0 0 0 0 0 0 0 0 0 0 0 0 0 0 0 0 0 0 0 0 0 0 0 0 0 0
0 0 0 0 0 0 0 0 0 0 0 0 0 0 0 0 0 0 0 0 0 0 0 0 0 0 0 0 0 0 0 0 0 0 0 0 0 0 0 0 0 0 0 0
0 0 0 0 0 0 0 0 0 0 0 0 0 0 0 0 0 0 0 0 0 0 0 0 0 0 0 0 0 0 0 0 0 0 0 0 0 0 0 0 0 0 0 0
Wind_Speed
9 8 7 9 9 9 12 12 12 13 13 13 9 7 5 3 2 2 2 2 2 2 2 2 2 2 2 2 2 2 2 2 2 1 1 1 1 1 1 1 1 2 2 2
8 8 9 11 12 13 14 13 14 14 17 11 6 3 4 4 3 3 3 3 2 2 2 2 3 3 2 2 2 2 2 2 2 1 1 1 1 1 1 1 1 2 2 2
8 6 5 12 13 15 12 10 11 16 16 7 5 5 5 4 3 3 4 3 3 3 3 3 3 3 3 3 2 2 2 2 2 1 1 1 1 1 1 2 1 2 2 2
4 2 12 10 3 8 10 11 11 10 8 6 6 4 2 3 4 3 3 3 3 3 3 3 2 2 2 2 1 2 2 2 1 1 2 1 1 1 2 2 2 2 3 3
4 7 11 8 4 4 7 9 8 9 8 5 2 1 3 3 2 3 3 3 3 3 3 2 2 2 2 2 1 2 2 2 2 2 2 2 2 2 2 2 2 2 3 3
6 6 10 8 3 2 2 7 5 6 7 5 3 4 6 3 1 1 1 2 2 2 1 1 2 1 1 2 2 3 3 3 2 2 3 3 3 2 2 2 3 3 3 3
9 9 10 6 3 3 5 8 2 5 5 5 5 6 3 1 1 1 1 1 1 1 1 1 1 1 1 2 3 4 2 2 2 2 2 2 2 2 2 2 2 2 3 3
6 8 11 3 5 7 7 1 1 2 3 4 4 3 2 2 2 1 1 1 1 1 2 2 1 1 2 4 4 2 2 2 2 2 2 1 1 2 2 2 2 2 3 3
9 9 4 5 6 4 2 3 2 2 2 3 3 3 3 3 2 2 2 1 1 1 2 2 1 1 3 4 2 1 2 2 2 2 1 2 2 2 2 2 2 3 3 3
5 7 5 5 4 3 3 3 2 2 2 2 3 3 3 3 3 2 2 1 1 1 2 3 3 2 3 3 2 1 2 2 2 2 2 1 2 2 2 2 3 3 3 3
7 6 4 6 6 5 3 2 1 1 1 2 2 3 3 3 3 2 2 1 1 2 4 4 4 3 3 2 1 2 3 3 2 2 2 2 2 3 4 4 5 5 4 4
9 7 6 5 3 3 3 2 2 1 1 1 2 2 3 3 3 2 2 2 2 3 4 5 4 4 3 3 2 3 3 3 2 2 2 2 2 3 5 6 7 8 7 6
5 3 3 2 1 1 2 1 1 1 2 2 1 1 2 3 2 2 2 2 3 4 5 5 4 5 4 3 3 4 4 4 3 2 2 2 2 3 3 5 6 6 6 7
1 1 2 2 2 1 1 1 1 1 0 1 1 1 1 2 2 2 3 3 4 4 4 4 5 6 5 4 4 4 4 4 4 3 3 3 3 3 3 3 4 4 5 7
1 1 3 1 1 2 2 2 1 0 1 1 1 1 1 2 3 4 4 3 3 4 4 4 5 6 4 3 4 4 4 3 3 3 3 3 3 3 3 4 4 4 3 5
1 1 2 2 2 1 1 1 1 1 1 2 2 2 2 3 3 4 4 3 3 5 5 5 6 6 4 3 4 3 3 4 3 3 3 3 3 3 3 3 4 4 4 4
2 2 2 2 2 1 1 2 2 2 2 2 3 3 2 2 3 4 4 3 4 5 6 6 7 5 4 4 4 3 3 3 4 3 3 3 3 4 4 4 4 4 4 5
2 2 3 3 3 2 2 1 1 2 2 3 2 2 2 2 4 5 5 5 4 5 6 6 6 4 4 4 3 3 3 3 3 3 3 3 3 3 4 4 4 5 4 4
2 1 1 1 1 1 1 1 2 2 2 2 2 3 3 4 4 5 4 4 5 6 6 5 6 4 4 4 3 3 3 3 3 3 3 3 3 3 3 4 4 4 4 4
2 1 1 1 1 0 1 1 1 2 2 2 2 3 4 4 4 4 4 4 5 5 5 5 5 4 4 4 4 2 3 3 3 3 3 3 3 4 4 4 4 4 4 4
1 1 1 0 1 1 1 1 1 2 3 2 2 3 4 5 4 3 3 5 5 4 5 5 4 4 4 3 3 2 3 3 3 3 3 3 3 4 4 4 4 4 4 4
1 1 0 0 0 1 2 1 1 2 2 2 2 3 3 4 4 4 4 5 5 5 4 4 4 4 4 4 2 2 3 3 3 3 3 3 3 4 4 4 4 4 4 4
1 1 1 1 1 1 2 2 2 2 3 3 3 3 4 4 3 3 5 4 4 6 5 4 5 6 5 2 2 2 2 3 3 3 3 3 4 4 4 4 4 4 4 4
1 0 1 1 1 0 1 3 3 2 3 4 4 4 3 3 3 3 4 5 6 7 5 5 7 6 3 1 2 2 2 3 3 3 3 3 3 3 3 4 4 4 4 4
1 1 1 0 0 1 2 3 3 3 3 3 4 4 3 3 3 4 4 5 6 6 5 5 6 5 2 2 2 2 2 3 3 3 3 3 3 3 3 3 4 4 4 4
1 1 1 1 2 2 2 2 2 2 3 3 4 3 3 3 4 4 3 4 5 5 4 3 3 3 2 2 2 2 2 3 3 3 3 3 3 3 3 4 4 4 4 4
0 0 1 1 1 1 2 2 2 3 3 3 4 4 3 3 3 3 3 3 3 3 3 3 3 2 2 2 2 2 2 2 2 2 2 3 3 3 3 4 4 4 4 4
Wind_Direction
252 257 248 247 244 224 222 228 236 254 254 261 252 242 240 234 229 239 261 268 239 234 246 260 275 275 262 253 238 202 186 196 209 212 212 209 221 224 218 215 223 231 237 252
266 260 254 258 249 238 238 238 242 257 263 259 261 240 237 231 218 235 254 266 267 257 256 254 255 262 268 260 244 193 189 205 202 190 200 213 230 239 248 252 250 239 236 243
259 273 284 259 235 226 228 222 220 241 252 254 250 238 230 232 224 229 250 264 269 264 255 257 256 252 254 254 248 207 203 207 194 189 210 229 234 238 248 260 263 263 263 261
245 240 242 247 230 219 228 242 233 240 251 237 223 222 234 229 215 236 252 262 272 271 269 273 273 258 254 251 231 212 209 212 208 207 231 241 236 244 259 265 259 267 272 269
204 236 264 278 251 201 215 255 238 235 246 250 230 288 285 250 212 223 242 256 261 264 263 275 281 268 243 234 228 225 226 227 227 220 227 237 245 251 262 271 270 272 270 265
210 226 245 252 242 210 161 268 252 217 225 224 192 240 252 233 202 233 258 266 280 299 313 315 306 299 239 242 235 237 240 240 236 224 221 231 246 262 282 274 272 278 281 275
221 237 255 252 236 136 191 250 231 200 212 206 215 231 238 202 196 213 233 273 294 311 313 302 316 316 256 259 255 257 256 251 245 235 235 238 254 272 274 279 285 282 284 287
204 230 251 216 147 187 221 226 178 202 209 204 218 232 230 220 217 215 252 286 290 283 296 308 308 259 263 265 276 285 262 247 246 250 251 244 242 267 267 259 269 276 282 288
203 223 241 181 195 217 200 208 223 207 212 190 205 231 238 248 239 224 223 255 276 268 288 298 282 246 255 276 296 287 268 253 254 263 258 247 234 244 254 248 252 266 269 276
240 252 245 234 244 243 221 218 217 190 188 182 209 229 241 253 248 243 240 258 283 281 281 286 288 273 264 279 280 254 251 251 245 241 254 255 249 237 239 241 250 260 263 269
248 255 259 253 240 240 233 206 174 172 195 210 211 242 253 262 252 249 260 281 261 253 264 275 283 279 277 266 236 242 249 247 245 240 236 246 251 246 249 238 238 249 249 251
236 230 218 237 230 203 187 205 203 205 267 271 220 243 259 263 260 256 263 275 270 268 272 277 280 279 273 256 230 225 244 243 238 240 240 242 257 288 285 282 278 275 274 273
238 234 219 229 220 166 178 201 221 212 226 255 272 260 270 273 276 273 272 269 264 265 268 272 273 272 265 246 227 223 233 236 235 233 232 236 242 253 287 306 299 291 287 287
208 148 219 230 217 159 132 105 77 66 256 241 266 282 283 280 283 277 274 276 278 276 273 271 270 270 268 247 228 230 233 231 228 227 229 231 236 243 247 261 283 293 296 296
270 240 214 172 117 103 101 94 84 352 320 328 331 296 283 276 278 283 288 293 291 282 277 273 269 271 270 246 229 229 229 229 225 226 230 233 238 243 246 248 257 274 295 299
228 99 115 139 151 121 103 121 176 257 287 300 300 293 287 280 283 291 298 299 282 279 280 275 272 275 274 249 235 233 233 238 233 228 232 236 236 238 246 251 257 263 266 273
143 173 186 196 203 210 215 215 221 246 270 276 282 299 307 311 311 305 305 297 276 276 278 274 275 280 272 254 237 235 233 235 231 232 231 234 236 239 241 244 251 258 262 266
160 179 184 187 194 209 243 254 246 259 268 280 298 306 300 295 290 294 300 306 302 296 289 280 277 277 271 261 245 239 233 233 231 231 236 237 240 244 245 247 250 257 269 276
87 101 99 119 165 180 214 253 266 276 291 294 288 285 287 287 286 290 300 305 299 296 299 300 302 305 282 268 255 233 228 232 237 238 237 243 247 246 246 251 257 261 266 269
74 75 77 55 37 125 230 280 299 302 298 291 290 298 301 297 295 296 297 285 274 273 289 297 294 288 277 266 261 241 233 233 237 241 238 237 242 248 249 253 257 262 264 264
103 90 91 71 343 333 292 279 280 287 296 293 275 280 288 295 296 292 292 291 293 293 295 294 291 287 280 269 249 239 234 236 239 241 242 243 247 253 256 258 261 262 264 268
143 144 184 242 286 308 307 294 273 279 295 300 290 285 291 296 300 295 273 267 290 305 302 295 289 284 281 275 256 243 240 240 242 243 244 247 249 255 260 262 263 266 267 268
186 198 215 236 241 275 312 317 299 285 286 287 286 283 279 281 284 284 292 293 297 301 301 293 293 293 288 269 256 251 249 247 248 248 249 251 253 254 258 262 264 267 270 271
184 223 249 254 216 257 313 308 304 293 286 285 283 278 276 285 289 270 270 294 303 302 297 294 297 304 308 293 276 266 260 257 258 259 260 262 262 261 261 264 268 270 270 272
202 236 243 221 241 271 277 296 308 309 305 298 298 294 282 268 269 287 294 298 304 306 302 306 310 312 307 287 278 274 270 265 265 267 264 266 267 267 266 266 267 271 273 273
223 245 260 255 250 261 275 288 293 296 301 304 305 301 296 288 281 286 293 297 301 303 302 303 305 303 296 288 284 282 279 279 279 273 266 266 267 269 271 273 272 271 273 275
317 287 301 310 300 277 270 269 272 281 282 282 291 294 295 298 300 304 307 309 313 314 313 313 313 311 307 303 299 296 294 292 289 286 284 279 276 276 277 278 278 278 277 278